| time (UTC) | temp C | wind direction | speed KPH | gust KPH | rain 1hr cm | rain 24hr cm | rain mn cm | humidity % | barometer mb |
| 20260902062601 | 19 | 253 | 6.4 | 9.7 | 0.00 | 0.00 | 0.00 | 48 | 1007.2 |
| 20260902061602 | 20 | 269 | 6.4 | 8.0 | 0.00 | 0.00 | 0.00 | 47 | 1007.1 |
| 20260902060603 | 20 | 247 | 8.0 | 11.3 | 0.00 | 0.00 | 0.00 | 47 | 1007.0 |
| 20260902055602 | 20 | 249 | 6.4 | 9.7 | 0.00 | 0.00 | 0.00 | 47 | 1006.9 |
| 20260902054604 | 20 | 282 | 6.4 | 9.7 | 0.00 | 0.00 | 0.00 | 47 | 1007.0 |
| 20260902053604 | 20 | 211 | 6.4 | 8.0 | 0.00 | 0.00 | 0.00 | 47 | 1006.8 |
| 20260902052622 | 20 | 0.0 | 0.0 | 0.00 | 0.00 | 0.00 | 48 | 1006.8 | |
| 20260902051604 | 20 | 256 | 4.8 | 9.7 | 0.00 | 0.00 | 0.00 | 47 | 1006.6 |
| 20260902050603 | 20 | 255 | 4.8 | 8.0 | 0.00 | 0.00 | 0.00 | 47 | 1006.4 |
| 20260902045603 | 20 | 234 | 1.6 | 6.4 | 0.00 | 0.00 | 0.00 | 46 | 1006.3 |
| 20260902044623 | 20 | 220 | 3.2 | 6.4 | 0.00 | 0.00 | 0.00 | 46 | 1006.2 |
| 20260902043604 | 21 | 0.0 | 0.0 | 0.00 | 0.00 | 0.00 | 45 | 1006.1 | |
| 20260902042623 | 21 | 264 | 3.2 | 8.0 | 0.00 | 0.00 | 0.00 | 42 | 1006.1 |
| 20260902041605 | 20 | 232 | 6.4 | 8.0 | 0.00 | 0.00 | 0.00 | 41 | 1005.8 |
| 20260902040605 | 21 | 224 | 4.8 | 8.0 | 0.00 | 0.00 | 0.00 | 42 | 1005.7 |
| 20260902035604 | 21 | 227 | 4.8 | 8.0 | 0.00 | 0.00 | 0.00 | 40 | 1005.6 |
| 20260902034625 | 20 | 217 | 3.2 | 4.8 | 0.00 | 0.00 | 0.00 | 39 | 1005.3 |
| 20260902033604 | 20 | 213 | 4.8 | 8.0 | 0.00 | 0.00 | 0.00 | 41 | 1005.2 |
| 20260902032646 | 21 | 264 | 3.2 | 3.2 | 0.00 | 0.00 | 0.00 | 41 | 1004.9 |
| 20260902031604 | 21 | 270 | 0.0 | 3.2 | 0.00 | 0.00 | 0.00 | 39 | 1004.7 |
| 20260902030646 | 22 | 228 | 1.6 | 3.2 | 0.00 | 0.00 | 0.00 | 38 | 1004.7 |
| 20260902025604 | 23 | 244 | 1.6 | 4.8 | 0.00 | 0.00 | 0.00 | 37 | 1004.5 |
| 20260902024604 | 23 | 257 | 3.2 | 4.8 | 0.00 | 0.00 | 0.00 | 37 | 1004.4 |
| 20260902023606 | 24 | 267 | 3.2 | 9.7 | 0.00 | 0.00 | 0.00 | 36 | 1004.3 |
| 20260902022605 | 25 | 241 | 4.8 | 8.0 | 0.00 | 0.00 | 0.00 | 37 | 1004.2 |
| 20260902021604 | 25 | 255 | 3.2 | 8.0 | 0.00 | 0.00 | 0.00 | 37 | 1004.1 |
| 20260902020606 | 26 | 263 | 4.8 | 8.0 | 0.00 | 0.00 | 0.00 | 36 | 1004.1 |
| 20260902015605 | 26 | 256 | 6.4 | 9.7 | 0.00 | 0.00 | 0.00 | 36 | 1004.1 |
| 20260902014605 | 27 | 276 | 9.7 | 14.5 | 0.00 | 0.00 | 0.00 | 36 | 1004.0 |
| 20260902013625 | 27 | 279 | 8.0 | 11.3 | 0.00 | 0.00 | 0.00 | 38 | 1004.1 |
| 20260902012605 | 28 | 281 | 6.4 | 8.0 | 0.00 | 0.00 | 0.00 | 36 | 1003.8 |
| 20260902011626 | 28 | 231 | 3.2 | 4.8 | 0.00 | 0.00 | 0.00 | 35 | 1003.6 |
| 20260902010627 | 29 | 267 | 4.8 | 6.4 | 0.00 | 0.00 | 0.00 | 33 | 1003.6 |
| 20260902005605 | 30 | 271 | 6.4 | 8.0 | 0.00 | 0.00 | 0.00 | 32 | 1003.6 |
| 20260902004606 | 30 | 254 | 4.8 | 6.4 | 0.00 | 0.00 | 0.00 | 31 | 1003.5 |
| 20260902003607 | 30 | 244 | 11.3 | 16.1 | 0.00 | 0.00 | 0.00 | 26 | 1003.4 |
| 20260902002626 | 31 | 206 | 8.0 | 11.3 | 0.00 | 0.00 | 0.00 | 25 | 1003.5 |
| 20260902001626 | 31 | 211 | 9.7 | 14.5 | 0.00 | 0.00 | 0.00 | 24 | 1003.5 |
| 20260902000627 | 32 | 159 | 11.3 | 14.5 | 0.00 | 0.00 | 0.00 | 23 | 1003.5 |
| 20260901235608 | 32 | 164 | 16.1 | 20.9 | 0.00 | 0.00 | 0.00 | 23 | 1003.6 |
| 20260901234606 | 32 | 143 | 14.5 | 20.9 | 0.00 | 0.00 | 0.00 | 24 | 1003.7 |
| 20260901233608 | 32 | 169 | 12.9 | 17.7 | 0.00 | 0.00 | 0.00 | 24 | 1003.8 |
| 20260901232607 | 32 | 159 | 11.3 | 16.1 | 0.00 | 0.00 | 0.00 | 25 | 1003.8 |
| 20260901231606 | 32 | 147 | 14.5 | 19.3 | 0.00 | 0.00 | 0.00 | 27 | 1003.9 |
| 20260901230649 | 31 | 163 | 12.9 | 20.9 | 0.00 | 0.00 | 0.00 | 27 | 1004.0 |
| 20260901225607 | 32 | 135 | 12.9 | 16.1 | 0.00 | 0.00 | 0.00 | 29 | 1004.1 |
| 20260901224607 | 32 | 162 | 16.1 | 25.7 | 0.00 | 0.00 | 0.00 | 29 | 1004.2 |
| 20260901223607 | 31 | 162 | 14.5 | 20.9 | 0.00 | 0.00 | 0.00 | 29 | 1004.3 |
| 20260901222607 | 31 | 128 | 16.1 | 20.9 | 0.00 | 0.00 | 0.00 | 30 | 1004.5 |
| 20260901221607 | 31 | 140 | 14.5 | 24.1 | 0.00 | 0.00 | 0.00 | 32 | 1004.6 |
| 20260901220608 | 31 | 168 | 14.5 | 19.3 | 0.00 | 0.00 | 0.00 | 33 | 1004.7 |
| 20260901215609 | 31 | 164 | 14.5 | 20.9 | 0.00 | 0.00 | 0.00 | 33 | 1004.9 |
| 20260901214608 | 31 | 171 | 14.5 | 20.9 | 0.00 | 0.00 | 0.00 | 32 | 1005.0 |
| 20260901213608 | 31 | 131 | 14.5 | 19.3 | 0.00 | 0.00 | 0.00 | 31 | 1005.2 |
| 20260901212608 | 30 | 168 | 11.3 | 14.5 | 0.00 | 0.00 | 0.00 | 32 | 1005.3 |
| 20260901211609 | 30 | 145 | 14.5 | 19.3 | 0.00 | 0.00 | 0.00 | 34 | 1005.4 |
| 20260901210628 | 30 | 137 | 16.1 | 19.3 | 0.00 | 0.00 | 0.00 | 34 | 1005.5 |
| 20260901205650 | 29 | 134 | 16.1 | 20.9 | 0.00 | 0.00 | 0.00 | 35 | 1005.6 |
| 20260901204609 | 28 | 157 | 14.5 | 19.3 | 0.00 | 0.00 | 0.00 | 36 | 1005.8 |
| 20260901203608 | 28 | 131 | 11.3 | 14.5 | 0.00 | 0.00 | 0.00 | 37 | 1005.9 |
| 20260901202609 | 27 | 153 | 14.5 | 20.9 | 0.00 | 0.00 | 0.00 | 36 | 1006.0 |
| 20260901201609 | 27 | 139 | 16.1 | 20.9 | 0.00 | 0.00 | 0.00 | 36 | 1006.2 |
| 20260901200609 | 28 | 155 | 8.0 | 12.9 | 0.00 | 0.00 | 0.00 | 33 | 1006.2 |
| 20260901195609 | 27 | 290 | 8.0 | 12.9 | 0.00 | 0.00 | 0.00 | 33 | 1006.2 |
| 20260901194610 | 26 | 337 | 6.4 | 11.3 | 0.00 | 0.00 | 0.00 | 37 | 1006.4 |
| 20260901193609 | 26 | 6 | 8.0 | 11.3 | 0.00 | 0.00 | 0.00 | 39 | 1006.5 |
| 20260901192610 | 25 | 13 | 4.8 | 8.0 | 0.00 | 0.00 | 0.00 | 39 | 1006.6 |
| 20260901191610 | 25 | 1 | 4.8 | 8.0 | 0.00 | 0.00 | 0.00 | 41 | 1006.6 |
| 20260901190610 | 25 | 34 | 8.0 | 11.3 | 0.00 | 0.00 | 0.00 | 39 | 1006.7 |
| 20260901185610 | 25 | 60 | 8.0 | 9.7 | 0.00 | 0.00 | 0.00 | 40 | 1006.8 |
| 20260901184611 | 25 | 24 | 8.0 | 11.3 | 0.00 | 0.00 | 0.00 | 39 | 1006.8 |
| 20260901183610 | 25 | 45 | 4.8 | 4.8 | 0.00 | 0.00 | 0.00 | 37 | 1006.9 |
| 20260901183112 | 25 | 325 | 8.0 | 8.0 | 0.00 | 0.00 | 0.00 | 36 | 1006.8 |
| 20260901182111 | 25 | 15 | 3.2 | 6.4 | 0.00 | 0.00 | 0.00 | 38 | 1007.0 |
| 20260901181112 | 24 | 337 | 4.8 | 6.4 | 0.00 | 0.00 | 0.00 | 41 | 1007.1 |
| 20260901180112 | 23 | 292 | 4.8 | 8.0 | 0.00 | 0.00 | 0.00 | 44 | 1007.2 |
| 20260901175112 | 22 | 174 | 8.0 | 14.5 | 0.00 | 0.00 | 0.00 | 44 | 1007.2 |
| 20260901174111 | 22 | 90 | 4.8 | 9.7 | 0.00 | 0.00 | 0.00 | 50 | 1007.4 |
| 20260901173111 | 22 | 0.0 | 0.0 | 0.00 | 0.00 | 0.00 | 49 | 1007.3 | |
| 20260901172113 | 22 | 0.0 | 0.0 | 0.00 | 0.00 | 0.00 | 48 | 1007.3 | |
| 20260901171111 | 22 | 0.0 | 0.0 | 0.00 | 0.00 | 0.00 | 52 | 1007.2 | |
| 20260901170133 | 21 | 0.0 | 0.0 | 0.00 | 0.00 | 0.00 | 55 | 1007.2 | |
| 20260901165111 | 21 | 0.0 | 0.0 | 0.00 | 0.00 | 0.00 | 56 | 1007.2 | |
| 20260901164153 | 21 | 0.0 | 0.0 | 0.00 | 0.00 | 0.00 | 57 | 1007.3 | |
| 20260901163133 | 20 | 0.0 | 0.0 | 0.00 | 0.00 | 0.00 | 59 | 1007.4 | |
| 20260901162112 | 20 | 0.0 | 0.0 | 0.00 | 0.00 | 0.00 | 60 | 1007.3 | |
| 20260901161133 | 18 | 23 | 0.0 | 1.6 | 0.00 | 0.00 | 0.00 | 64 | 1007.3 |
| 20260901160114 | 18 | 0.0 | 0.0 | 0.00 | 0.00 | 0.00 | 69 | 1007.2 | |
| 20260901155112 | 17 | 0.0 | 0.0 | 0.00 | 0.00 | 0.00 | 72 | 1007.2 | |
| 20260901154114 | 16 | 0.0 | 0.0 | 0.00 | 0.00 | 0.00 | 75 | 1007.3 | |
| 20260901153114 | 16 | 35 | 3.2 | 4.8 | 0.00 | 0.00 | 0.00 | 77 | 1007.2 |
| 20260901152132 | 15 | 32 | 0.0 | 3.2 | 0.00 | 0.00 | 0.00 | 81 | 1007.2 |
| 20260901151134 | 15 | 141 | 3.2 | 4.8 | 0.00 | 0.00 | 0.00 | 82 | 1007.3 |
| 20260901150113 | 14 | 29 | 3.2 | 4.8 | 0.00 | 0.00 | 0.00 | 83 | 1007.2 |
| 20260901145113 | 13 | 0.0 | 0.0 | 0.00 | 0.00 | 0.00 | 84 | 1007.1 | |
| 20260901144133 | 13 | 135 | 0.0 | 3.2 | 0.00 | 0.00 | 0.00 | 84 | 1007.1 |
| 20260901143113 | 13 | 9 | 1.6 | 3.2 | 0.00 | 0.00 | 0.00 | 85 | 1007.0 |
| 20260901142113 | 13 | 113 | 1.6 | 3.2 | 0.00 | 0.00 | 0.00 | 85 | 1007.0 |
| 20260901141115 | 12 | 23 | 0.0 | 1.6 | 0.00 | 0.00 | 0.00 | 85 | 1006.9 |
| 20260901140113 | 12 | 0.0 | 0.0 | 0.00 | 0.00 | 0.00 | 84 | 1006.9 | |
| 20260901135115 | 12 | 141 | 1.6 | 3.2 | 0.00 | 0.00 | 0.00 | 84 | 1006.8 |
| 20260901134115 | 12 | 0.0 | 0.0 | 0.00 | 0.00 | 0.00 | 83 | 1006.7 | |
| 20260901133114 | 12 | 0 | 0.0 | 3.2 | 0.00 | 0.00 | 0.00 | 83 | 1006.7 |
| 20260901132114 | 12 | 0.0 | 3.2 | 0.00 | 0.00 | 0.00 | 82 | 1006.7 | |
| 20260901131114 | 12 | 0.0 | 0.0 | 0.00 | 0.00 | 0.00 | 82 | 1006.7 | |
| 20260901130114 | 12 | 0.0 | 0.0 | 0.00 | 0.00 | 0.00 | 81 | 1006.6 | |
| 20260901125116 | 12 | 0.0 | 0.0 | 0.00 | 0.00 | 0.00 | 81 | 1006.6 | |
| 20260901124136 | 12 | 0.0 | 0.0 | 0.00 | 0.00 | 0.00 | 80 | 1006.6 | |
| 20260901123115 | 12 | 0.0 | 0.0 | 0.00 | 0.00 | 0.00 | 80 | 1006.6 | |
| 20260901122116 | 12 | 0.0 | 0.0 | 0.00 | 0.00 | 0.00 | 79 | 1006.6 | |
| 20260901121115 | 13 | 0.0 | 0.0 | 0.00 | 0.00 | 0.00 | 79 | 1006.6 | |
| 20260901120115 | 13 | 0.0 | 0.0 | 0.00 | 0.00 | 0.00 | 78 | 1006.6 | |
| 20260901115115 | 13 | 0.0 | 0.0 | 0.00 | 0.00 | 0.00 | 78 | 1006.7 | |
| 20260901114115 | 13 | 0.0 | 0.0 | 0.00 | 0.00 | 0.00 | 78 | 1006.8 | |
| 20260901113137 | 13 | 0.0 | 0.0 | 0.00 | 0.00 | 0.00 | 77 | 1006.7 | |
| 20260901112115 | 13 | 0.0 | 0.0 | 0.00 | 0.00 | 0.00 | 77 | 1006.6 | |
| 20260901111115 | 12 | 309 | 1.6 | 4.8 | 0.00 | 0.00 | 0.00 | 77 | 1006.7 |
| 20260901110115 | 12 | 338 | 0.0 | 3.2 | 0.00 | 0.00 | 0.00 | 77 | 1006.7 |
| 20260901105115 | 12 | 180 | 0.0 | 1.6 | 0.00 | 0.00 | 0.00 | 76 | 1006.7 |
| 20260901104118 | 12 | 152 | 0.0 | 4.8 | 0.00 | 0.00 | 0.00 | 75 | 1006.8 |
| 20260901103117 | 12 | 0.0 | 0.0 | 0.00 | 0.00 | 0.00 | 76 | 1007.0 | |
| 20260901102116 | 12 | 0.0 | 0.0 | 0.00 | 0.00 | 0.00 | 76 | 1007.0 | |
| 20260901101138 | 12 | 0.0 | 0.0 | 0.00 | 0.00 | 0.00 | 76 | 1007.0 | |
| 20260901100116 | 12 | 0.0 | 0.0 | 0.00 | 0.00 | 0.00 | 76 | 1007.0 | |
| 20260901095116 | 12 | 0.0 | 0.0 | 0.00 | 0.00 | 0.00 | 76 | 1007.1 | |
| 20260901094116 | 12 | 0.0 | 0.0 | 0.00 | 0.00 | 0.00 | 74 | 1007.1 | |
| 20260901093118 | 12 | 0.0 | 0.0 | 0.00 | 0.00 | 0.00 | 75 | 1007.1 | |
| 20260901092018 | 12 | 180 | 0.0 | 3.2 | 0.00 | 0.00 | 0.00 | 74 | 1007.1 |
| 20260901091117 | 12 | 0.0 | 0.0 | 0.00 | 0.00 | 0.00 | 73 | 1007.1 | |
| 20260901090159 | 13 | 0.0 | 0.0 | 0.00 | 0.00 | 0.00 | 73 | 1007.1 | |
| 20260901085219 | 13 | 0.0 | 0.0 | 0.00 | 0.00 | 0.00 | 72 | 1007.1 | |
| 20260901084118 | 13 | 0.0 | 0.0 | 0.00 | 0.00 | 0.00 | 70 | 1007.1 | |
| 20260901083039 | 13 | 0.0 | 0.0 | 0.00 | 0.00 | 0.00 | 70 | 1007.2 | |
| 20260901082018 | 14 | 0.0 | 0.0 | 0.00 | 0.00 | 0.00 | 71 | 1007.3 | |
| 20260901081017 | 14 | 0.0 | 0.0 | 0.00 | 0.00 | 0.00 | 72 | 1007.4 | |
| 20260901080119 | 14 | 0.0 | 0.0 | 0.00 | 0.00 | 0.00 | 72 | 1007.5 | |
| 20260901075020 | 14 | 0.0 | 0.0 | 0.00 | 0.00 | 0.00 | 72 | 1007.5 | |
| 20260901074018 | 15 | 0.0 | 0.0 | 0.00 | 0.00 | 0.00 | 72 | 1007.5 | |
| 20260901073018 | 15 | 0.0 | 0.0 | 0.00 | 0.00 | 0.00 | 73 | 1007.5 | |
| 20260901072018 | 14 | 180 | 0.0 | 3.2 | 0.00 | 0.00 | 0.00 | 73 | 1007.5 |
| 20260901071018 | 15 | 0.0 | 0.0 | 0.00 | 0.00 | 0.00 | 72 | 1007.5 | |
| 20260901070018 | 15 | 332 | 0.0 | 3.2 | 0.00 | 0.00 | 0.00 | 71 | 1007.5 |
| 20260901065040 | 15 | 293 | 0.0 | 1.6 | 0.00 | 0.00 | 0.00 | 71 | 1007.6 |
| 20260901064020 | 15 | 293 | 1.6 | 3.2 | 0.00 | 0.00 | 0.00 | 69 | 1007.5 |